VK2BLR Weather Reports


time (UTC)temp
C
wind
direction
speed
KPH
gust
KPH
rain 1hr
cm
rain 24hr
cm
rain mn
cm
humidity
%
barometer
mb
20260509112334 10 270 0.0 0.0 0.00 0.00 0.00 74 1023.6
20260509110832 11 270 0.0 0.0 0.00 0.00 0.00 74 1023.7
20260509105334 11 270 0.0 0.0 0.00 0.00 0.00 73 1023.7
20260509103834 11 270 0.0 0.0 0.00 0.00 0.00 73 1023.8
20260509102333 11 270 0.0 0.0 0.00 0.00 0.00 72 1023.9
20260509100832 11 270 0.0 0.0 0.00 0.00 0.00 72 1023.8
20260509095334 12 270 0.0 0.0 0.00 0.00 0.00 71 1023.7
20260509093834 12 270 0.0 0.0 0.00 0.00 0.00 68 1023.5
20260509092332 12 270 0.0 0.0 0.00 0.00 0.00 67 1023.7
20260509090833 13 270 0.0 0.0 0.00 0.00 0.00 65 1023.5
20260509085333 13 270 0.0 0.0 0.00 0.00 0.00 64 1023.3
20260509083834 13 270 0.0 0.0 0.00 0.00 0.00 63 1023.2
20260509082332 14 270 0.0 0.0 0.00 0.00 0.00 62 1023.0
20260509080833 15 270 0.0 0.0 0.00 0.00 0.00 61 1022.9
20260509075334 15 270 0.0 0.0 0.00 0.00 0.00 60 1022.7
20260509073833 16 270 0.0 0.0 0.00 0.00 0.00 58 1022.6
20260509072333 16 270 0.0 1.6 0.00 0.00 0.00 56 1022.5
20260509070834 17 270 1.6 4.8 0.00 0.00 0.00 55 1022.3
20260509065333 17 298 3.2 4.8 0.00 0.00 0.00 51 1022.2
20260509063832 17 286 3.2 4.8 0.00 0.00 0.00 50 1022.0
20260509062333 18 270 1.6 4.8 0.00 0.00 0.00 49 1022.0
20260509060833 18 291 4.8 9.7 0.00 0.00 0.00 48 1021.9
20260509055333 18 304 3.2 8.0 0.00 0.00 0.00 47 1021.8
20260509053832 19 302 4.8 9.7 0.00 0.00 0.00 47 1021.9
20260509052334 18 270 1.6 4.8 0.00 0.00 0.00 47 1021.9
20260509050833 19 297 1.6 4.8 0.00 0.00 0.00 46 1021.9
20260509045332 19 315 3.2 9.7 0.00 0.00 0.00 46 1021.8
20260509043832 20 292 1.6 1.6 0.00 0.00 0.00 45 1021.6
20260509042334 20 315 1.6 4.8 0.00 0.00 0.00 44 1021.7
20260509040833 20 275 3.2 4.8 0.00 0.00 0.00 44 1021.8
20260509035332 20 270 3.2 8.0 0.00 0.00 0.00 45 1021.8
20260509033834 20 270 1.6 4.8 0.00 0.00 0.00 46 1021.9
20260509032333 20 270 1.6 4.8 0.00 0.00 0.00 46 1021.9
20260509030834 20 270 1.6 4.8 0.00 0.00 0.00 46 1021.9
20260509025334 20 270 1.6 3.2 0.00 0.00 0.00 45 1022.1
20260509023833 20 270 1.6 4.8 0.00 0.00 0.00 46 1022.2
20260509022333 20 270 4.8 8.0 0.00 0.00 0.00 46 1022.4
20260509020833 20 270 0.0 1.6 0.00 0.00 0.00 47 1022.5
20260509015333 20 270 4.8 8.0 0.00 0.00 0.00 47 1022.9
20260509013833 19 315 0.0 0.0 0.00 0.00 0.00 48 1023.1
20260509012332 18 292 0.0 1.6 0.00 0.00 0.00 48 1023.0
20260509010832 19 292 4.8 4.8 0.00 0.00 0.00 49 1022.9
20260509005334 18 270 1.6 4.8 0.00 0.00 0.00 50 1023.0
20260509003834 18 270 0.0 3.2 0.00 0.00 0.00 50 1023.2
20260509002333 19 292 1.6 4.8 0.00 0.00 0.00 50 1023.1
20260509000834 18 270 1.6 3.2 0.00 0.00 0.00 50 1023.0
20260508235334 18 270 1.6 1.6 0.00 0.00 0.00 51 1023.0
20260508233832 18 270 0.0 1.6 0.00 0.00 0.00 51 1022.7
20260508232333 18 270 3.2 4.8 0.00 0.00 0.00 52 1022.7
20260508230834 17 270 1.6 1.6 0.00 0.00 0.00 53 1022.9
20260508225334 17 270 1.6 3.2 0.00 0.00 0.00 54 1022.9
20260508223834 17 270 1.6 1.6 0.00 0.00 0.00 61 1022.5
20260508222334 15 270 0.0 1.6 0.00 0.00 0.00 66 1022.4
20260508220834 13 270 0.0 1.6 0.00 0.00 0.00 73 1022.2
20260508215333 11 270 0.0 1.6 0.00 0.00 0.00 84 1022.1
20260508213833 8 270 0.0 1.6 0.00 0.00 0.00 86 1022.0
20260508212333 6 270 0.0 0.0 0.00 0.00 0.00 89 1021.9
20260508210834 6 270 0.0 0.0 0.00 0.00 0.00 88 1021.7
20260508205333 6 270 0.0 0.0 0.00 0.00 0.00 88 1021.7
20260508203833 6 270 0.0 0.0 0.00 0.00 0.00 89 1021.5
20260508202333 6 270 0.0 0.0 0.00 0.00 0.00 89 1021.3
20260508200834 6 270 0.0 0.0 0.00 0.00 0.00 89 1021.3
20260508195333 6 270 0.0 0.0 0.00 0.00 0.00 89 1021.2
20260508193832 6 270 0.0 0.0 0.00 0.00 0.00 88 1021.1
20260508192334 6 270 0.0 0.0 0.00 0.00 0.00 88 1020.9
20260508190834 6 270 0.0 0.0 0.00 0.00 0.00 88 1021.0
20260508185333 6 270 0.0 0.0 0.00 0.00 0.00 88 1021.0
20260508183834 7 270 0.0 0.0 0.00 0.00 0.00 88 1020.9
20260508182333 7 270 0.0 0.0 0.00 0.00 0.00 87 1020.9
20260508180832 7 270 0.0 0.0 0.00 0.00 0.00 87 1021.0
20260508175334 7 270 0.0 0.0 0.00 0.00 0.00 87 1021.0
20260508173834 7 270 0.0 0.0 0.00 0.00 0.00 82 1021.2
20260508172332 7 270 0.0 0.0 0.00 0.00 0.00 82 1021.2
20260508170833 7 270 0.0 0.0 0.00 0.00 0.00 82 1021.2
20260508165333 7 270 0.0 0.0 0.00 0.00 0.00 81 1021.4
20260508163834 8 270 0.0 0.0 0.00 0.00 0.00 81 1021.3
20260508162332 8 270 0.0 0.0 0.00 0.00 0.00 82 1021.3
20260508160833 8 270 0.0 0.0 0.00 0.00 0.00 82 1021.3
20260508155333 8 270 0.0 0.0 0.00 0.00 0.00 81 1021.3
20260508153833 8 270 0.0 0.0 0.00 0.00 0.00 81 1021.2
20260508152332 8 270 0.0 0.0 0.00 0.00 0.00 81 1021.2
20260508150833 9 270 0.0 0.0 0.00 0.00 0.00 80 1021.2
20260508145334 9 270 0.0 1.6 0.00 0.00 0.00 80 1021.4
20260508143832 9 270 0.0 0.0 0.00 0.00 0.00 79 1021.4
20260508142334 10 270 0.0 1.6 0.00 0.00 0.00 79 1021.4
20260508140834 10 270 0.0 0.0 0.00 0.00 0.00 79 1021.3
20260508135333 10 270 0.0 0.0 0.00 0.00 0.00 78 1021.3
20260508133833 10 270 0.0 4.8 0.00 0.00 0.00 78 1021.6
20260508132333 11 270 0.0 1.6 0.00 0.00 0.00 76 1021.6
20260508130834 11 270 0.0 0.0 0.00 0.00 0.00 76 1021.7
20260508125332 11 270 0.0 0.0 0.00 0.00 0.00 76 1021.9
20260508123833 11 270 0.0 1.6 0.00 0.00 0.00 76 1021.9
20260508122334 11 270 1.6 4.8 0.00 0.00 0.00 76 1022.0
20260508120833 11 270 0.0 1.6 0.00 0.00 0.00 77 1022.1
20260508115332 11 270 0.0 0.0 0.00 0.00 0.00 77 1022.1
20260508113832 11 270 0.0 1.6 0.00 0.00 0.00 76 1022.0